Northeast Philadelphia, PA

10:57 AM EDT on June 02, 2020 (GMT -0400)
Northeast Philadelphia

Weather History for KPNE - January, 2020

Change the Weather History Date:

Tuesday, January 14, 2020

  Actual Average Record
Temperature  
Mean Temperature 42 °F -  
Max Temperature 46 °F 35 °F 66 °F (2005)
Min Temperature 37 °F 22 °F 12 °F (2004)
Degree Days  
Heating Degree Days 24    
Moisture  
Dew Point 39 °F    
Average Humidity 85    
Maximum Humidity 90    
Minimum Humidity 79    
Precipitation  
Precipitation 0.00 in - - ()
Sea Level Pressure  
Sea Level Pressure 30.25 in    
Wind  
Wind Speed 3 mph ()    
Max Wind Speed 7 mph    
Max Gust Speed -    
Visibility 5.6 miles    
Events      
Averages and records for this station are not official NWS values.
T = Trace of Precipitation, MM = Missing Value Source: Averaged Metar Reports

Daily Weather History Graph

Daily Weather History Graph

Search for Another Location

Airport or City:

Astronomy

Jan. 14, 2020 Rise Set
Actual Time 7:20 AM EST 4:57 PM EST
Civil Twilight 6:50 AM EST 5:27 PM EST
Nautical Twilight 6:17 AM EST 6:00 PM EST
Astronomical Twilight 5:44 AM EST 6:33 PM EST
Moon 9:36 PM EST (1/14) 10:12 AM EST (1/14)
Length of Visible Light 10h 36m
Length of Day
9h 36m
Waning Gibbous, 81% of the Moon is Illuminated
Jan 14
Waning Gibbous
Jan 17
Last Quarter
Jan 24
New
Feb 1
First Quarter
Feb 9
Full

Hourly Weather History & Observations

Time (EST) Temp. Windchill Dew Point Humidity Pressure Visibility Wind Dir Wind Speed Gust Speed Precip Events Conditions
12:54 AM 37.9 °F - 33.1 °F 83% 30.39 in 10.0 mi Calm Calm - N/A   Clear
1:54 AM 37.9 °F - 33.1 °F 83% 30.38 in 10.0 mi Calm Calm - N/A   Clear
2:54 AM 37.0 °F - 33.1 °F 86% 30.38 in 10.0 mi Calm Calm - N/A   Clear
3:54 AM 37.9 °F 34.4 °F 33.1 °F 83% 30.37 in 10.0 mi NE 4.6 mph - N/A   Clear
4:54 AM 37.9 °F 34.4 °F 33.1 °F 83% 30.36 in 10.0 mi ENE 4.6 mph - N/A   Clear
5:54 AM 37.9 °F - 32.0 °F 79% 30.37 in 10.0 mi Calm Calm - N/A   Clear
6:54 AM 37.9 °F 34.4 °F 34.0 °F 86% 30.33 in 10.0 mi ENE 4.6 mph - N/A   Scattered Clouds
7:03 AM 37.9 °F 34.4 °F 34.0 °F 86% 30.33 in 10.0 mi NE 4.6 mph - N/A   Mostly Cloudy
7:54 AM 41.0 °F 39.0 °F 36.0 °F 82% 30.37 in 10.0 mi NNE 3.5 mph - N/A   Overcast
8:47 AM 42.1 °F 39.2 °F 36.0 °F 79% 30.37 in 8.0 mi NNE 4.6 mph - N/A   Overcast
8:54 AM 42.1 °F 40.2 °F 36.0 °F 79% 30.38 in 8.0 mi NNE 3.5 mph - N/A   Overcast
9:01 AM 42.1 °F 39.2 °F 36.0 °F 79% 30.37 in 8.0 mi ENE 4.6 mph - N/A   Overcast
9:28 AM 43.0 °F 40.3 °F 37.0 °F 80% 30.36 in 8.0 mi ENE 4.6 mph - N/A   Overcast
9:54 AM 43.0 °F 39.5 °F 37.9 °F 82% 30.36 in 7.0 mi East 5.8 mph - N/A   Overcast
10:54 AM 45.0 °F 41.2 °F 39.0 °F 80% 30.31 in 6.0 mi East 6.9 mph - N/A   Haze
11:54 AM 46.0 °F 43.1 °F 39.9 °F 79% 30.27 in 8.0 mi SE 5.8 mph - N/A   Overcast
12:54 PM 46.9 °F - 41.0 °F 80% 30.25 in 10.0 mi SSE 3.5 mph - N/A   Overcast
2:54 PM 46.9 °F - 42.1 °F 83% 30.17 in 5.0 mi ESE 6.9 mph - 0.00 in   Haze
3:49 PM 46.4 °F 45.2 °F 42.8 °F 87% 30.16 in 2.5 mi ESE 3.5 mph - N/A   Overcast
3:54 PM 46.9 °F - 43.0 °F 86% 30.16 in 2.0 mi East 4.6 mph - N/A   Overcast
4:29 PM 46.9 °F - 43.0 °F 86% 30.15 in 1.2 mi East 4.6 mph - N/A   Overcast
4:54 PM 46.9 °F - 43.0 °F 86% 30.16 in 1.2 mi East 5.8 mph - N/A   Overcast
4:58 PM 46.9 °F - 43.0 °F 86% 30.16 in 1.8 mi East 4.6 mph - N/A   Overcast
5:15 PM 46.9 °F - 43.0 °F 86% 30.15 in 2.0 mi East 5.8 mph - N/A   Overcast
5:54 PM 46.9 °F - 43.0 °F 86% 30.16 in 2.0 mi ENE 4.6 mph - N/A   Overcast
6:41 PM 46.0 °F 43.9 °F 43.0 °F 89% 30.16 in 2.0 mi East 4.6 mph - N/A   Overcast
7:11 PM 46.0 °F - 43.0 °F 89% 30.16 in 3.0 mi Calm Calm - N/A   Overcast
7:54 PM 46.0 °F - 43.0 °F 89% 30.16 in 2.0 mi Calm Calm - N/A   Overcast
8:43 PM 46.0 °F - 43.0 °F 89% 30.15 in 3.0 mi Calm Calm - N/A   Overcast
9:54 PM 46.0 °F - 43.0 °F 89% 30.15 in 3.0 mi Calm Calm - N/A   Overcast
10:08 PM 46.0 °F - 43.0 °F 89% 30.15 in 2.5 mi Calm Calm - N/A   Overcast
10:30 PM 45.0 °F - 42.1 °F 90% 30.15 in 1.0 mi Calm Calm - N/A   Overcast
10:54 PM 45.0 °F 41.8 °F 42.1 °F 90% 30.16 in 3.0 mi West 5.8 mph - N/A   Overcast
11:34 PM 46.0 °F 43.9 °F 43.0 °F 89% 30.15 in 3.0 mi West 4.6 mph - N/A   Overcast
11:54 PM 46.0 °F 44.8 °F 43.0 °F 89% 30.15 in 3.0 mi WSW 3.5 mph - N/A   Overcast